Regional Weather Roundup
Issued by NWS Little Rock, AR

Home | Current Version | Previous Version | Text Only | Print | Product List | Glossary Off
Versions: 1 2 3 4 5 6 7 8 9 10 11 12 13 14 15 16 17 18 19 20 21 22 23 24 25 26 27 28 29 30 31 32 33 34 35 36 37 38 39 40 41 42 43 44 45 46 47 48 49 50

496
ASUS44 KLZK 292005
RWRLZK

WEATHER ROUNDUP FOR ARKANSAS
NATIONAL WEATHER SERVICE LITTLE ROCK AR
300 PM CDT SAT APR 29 2017

NOTE: "FAIR" INDICATES FEW OR NO CLOUDS BELOW 12,000 FEET WITH NO
SIGNIFICANT WEATHER AND/OR OBSTRUCTIONS TO VISIBILITY.

ARZ001-003-010-029-292100-
NORTHWEST ARKANSAS

CITY           SKY/WX    TMP DP  RH WIND       PRES   REMARKS
FAYETTEVILLE   TSTM      66  66 100 E5        29.67R
FORT SMITH     CLOUDY    73  68  84 SE8       29.59F
HARRISON       TSTM      69  69 100 NE7       29.69S FOG
BENTONVILLE    CLOUDY    64  63  94 CALM      29.68R
ROGERS         LGT RAIN  65  64  97 E5        29.70R
SILOAM SPGS    CLOUDY    66  63  88 W3        29.66F
HIGHFILL       CLOUDY    66  65  96 SE6       29.66F
SPRINGDALE     LGT RAIN  66  66 100 S8        29.70F FOG
$$

ARZ004-005-016-292100-
NORTH CENTRAL ARKANSAS

CITY           SKY/WX    TMP DP  RH WIND       PRES   REMARKS
BATESVILLE     CLOUDY    82  70  65 SE15G29   29.75S HX  86
FLIPPIN        CLOUDY   N/A N/A N/A SE8       29.66F THUNDER
MTN HOME       TSTM      75  70  84 S10       29.70F
$$

ARZ040-041-292100-
WEST CENTRAL ARKANSAS

CITY           SKY/WX    TMP DP  RH WIND       PRES   REMARKS
MENA           CLOUDY    77  77 100 S10G20    29.65S
MOUNT IDA      LGT RAIN  79  72  79 SE14G23   29.63F
$$

ARZ009-017-025-026-028-292100-
NORTHEAST ARKANSAS

CITY           SKY/WX    TMP DP  RH WIND       PRES   REMARKS
CORNING        LGT RAIN  86  73  66 S22       29.79F HX  93
JONESBORO      MOSUNNY   85  69  58 S25G33    29.77F HX  89
NEWPORT        PTSUNNY   86  72  62 S26G33    29.75F HX  92
WALNUT RIDGE   MOSUNNY   86  70  58 S22G30    29.77F HX  90
BLYTHEVILLE    MOSUNNY   87  71  58 S16G28    29.84F HX  93
$$

ARZ022-023-033-042-044-292100-
CENTRAL ARKANSAS

CITY           SKY/WX    TMP DP  RH WIND       PRES   REMARKS
LITTLE ROCK    CLOUDY    84  73  69 SE18G25   29.72F HX  90
N LITTLE ROCK    N/A     82  73  73 S13G24    29.71F HX  87
JACKSONVILLE   MOSUNNY   85  73  65 SE15G26   29.72F HX  92
CONWAY           N/A     82  73  74 SE23G31   29.69R HX  88
SEARCY         PTSUNNY   86  74  67 S20G30    29.74F HX  94
HOT SPRINGS    CLOUDY    79  74  84 SE13G21   29.70S
RUSSELLVILLE   CLOUDY    79  71  76 SE8G20    29.66S
CLINTON        CLOUDY    79  72  78 SE13G24   29.70F HAZE
$$

ARZ036-292100-
EAST ARKANSAS

CITY           SKY/WX    TMP DP  RH WIND       PRES   REMARKS
WEST MEMPHIS   MOSUNNY   87  71  58 S24G35    29.81F HX  93
$$

ARZ050-053-066-070-073-292100-
SOUTHWEST ARKANSAS

CITY           SKY/WX    TMP DP  RH WIND       PRES   REMARKS
ARKADELPHIA    MOCLDY    83  73  72 S14G23    29.70S HX  89
CAMDEN         CLOUDY    82  68  61 S15G26    29.72S HX  85
TEXARKANA      CLOUDY    79  71  76 S17G29    29.67R
EL DORADO      CLOUDY    77  66  68 SE21G35   29.71F
DE QUEEN       LGT RAIN  80  75  84 S10G21    29.61S HX  85
$$

ARZ056-057-069-292100-
SOUTHEAST ARKANSAS

CITY           SKY/WX    TMP DP  RH WIND       PRES   REMARKS
PINE BLUFF     PTSUNNY   84  70  62 S20G35    29.75S HX  88
STUTTGART      PTSUNNY  N/A N/A N/A S26G33    29.76F
MONTICELLO     PTSUNNY   86  70  58 S14G28    29.77R HX  90

$$






USA.gov is the U.S. government's official web portal to all federal, state and local government web resources and services.